Weather History for Albany, NY

Change the Weather History Date:

Monday, January 6, 2014

  Actual Average Record
Temperature  
Mean Temperature 32 °F 23 °F  
Max Temperature 50 °F 31 °F 71 °F (2007)
Min Temperature 13 °F 15 °F -19 °F (1996)
Degree Days  
Heating Degree Days 33 42  
Month to date heating degree days 312 251  
Since 1 July heating degree days 2836 2786  
Cooling Degree Days 0 0  
Month to date cooling degree days 0 0  
Year to date cooling degree days 0 0  
Moisture  
Dew Point 32 °F    
Average Humidity 72    
Maximum Humidity 93    
Minimum Humidity 51    
Precipitation  
Precipitation 0.44 in 0.09 in 1.22 in (1910)
Month to date precipitation 1.24 0.50  
Year to date precipitation 1.24 0.50  
Snow  
Snow T in 0.50 in 12.70 in (2002)
Month to date snowfall 9.5 3.3  
Since 1 July snowfall 31.6 19.8  
Snow Depth 5.00 in    
Sea Level Pressure  
Sea Level Pressure 29.48 in    
Wind  
Wind Speed 15 mph (WSW)    
Max Wind Speed 35 mph    
Max Gust Speed 45 mph    
Visibility 5 miles    
Events Fog , Rain , Snow    
T = Trace of Precipitation, MM = Missing Value Source: NWS Daily Summary

Daily Weather History Graph

Daily Weather History Graph

Search for Another Location

Airport:

Trip Planner

Search our weather history database for the weather conditions in past years. The results will help you decide how hot, cold, wet, or windy it might be!

Date:

Astronomy

Jan. 06, 2014 Rise Set
Actual Time 7:25 AM EST 4:36 PM EST
Civil Twilight 6:53 AM EST 5:08 PM EST
Nautical Twilight 6:18 AM EST 5:44 PM EST
Astronomical Twilight 5:44 AM EST 6:18 PM EST
Moon 10:30 AM EST (1/6) 11:17 PM EST (1/6)
Length of Visible Light 10h 14m
Length of Day
9h 11m
Waxing Crescent, 34% of the Moon is Illuminated
Jan 6
Waxing Crescent
Jan 7
First Quarter
Jan 15
Full
Jan 24
Last Quarter
Jan 30
New

Hourly Weather History & Observations

Time (EST) Temp. Windchill Dew Point Humidity Pressure Visibility Wind Dir Wind Speed Gust Speed Precip Events Conditions
12:26 AM 35.6 °F 27.5 °F 33.8 °F 93% 29.71 in 1.0 mi South 11.5 mph - 0.00 in Rain Light Rain
12:47 AM 35.6 °F 28.6 °F 35.6 °F 100% 29.68 in 0.5 mi South 9.2 mph - 0.02 in Rain Light Rain
12:51 AM 36.0 °F 30.3 °F 34.0 °F 93% 29.69 in 0.5 mi South 6.9 mph - 0.02 in Rain Light Rain
1:07 AM 35.6 °F 29.2 °F 35.6 °F 100% 29.65 in 1.0 mi South 8.1 mph - 0.02 in Rain Light Rain
1:51 AM 37.0 °F 31.6 °F 35.1 °F 93% 29.64 in 2.0 mi SSW 6.9 mph - 0.07 in Rain Light Rain
2:18 AM 37.4 °F 34.9 °F 35.6 °F 93% 29.61 in 1.5 mi WSW 3.5 mph - 0.01 in   Light Drizzle
2:51 AM 41.0 °F 38.0 °F 39.0 °F 93% 29.58 in 1.8 mi SSE 4.6 mph - 0.01 in   Light Drizzle
3:51 AM 44.1 °F 38.1 °F 42.1 °F 93% 29.50 in 1.5 mi SSE 11.5 mph - 0.02 in   Light Drizzle
4:51 AM 45.0 °F 40.1 °F 43.0 °F 93% 29.45 in 1.5 mi SSE 9.2 mph - 0.01 in   Light Drizzle
5:16 AM 46.4 °F 41.1 °F 44.6 °F 93% 29.42 in 2.0 mi SSE 11.5 mph 24.2 mph 0.00 in   Overcast
5:51 AM 48.0 °F - 46.0 °F 93% 29.41 in 1.5 mi SSE 17.3 mph 25.3 mph 0.01 in Fog Patches of Fog
6:39 AM 48.2 °F - 46.4 °F 93% 29.36 in 0.5 mi SSE 12.7 mph 21.9 mph 0.00 in Fog Light Drizzle
6:51 AM 48.0 °F - 46.0 °F 93% 29.36 in 0.5 mi SSE 12.7 mph 21.9 mph 0.01 in Fog , Rain Light Rain
7:37 AM 48.2 °F - 46.4 °F 93% 29.30 in 1.2 mi South 12.7 mph 19.6 mph 0.00 in Rain Light Rain
7:51 AM 48.0 °F - 46.9 °F 96% 29.29 in 0.8 mi SSE 11.5 mph - 0.01 in Rain Light Rain
8:04 AM 48.2 °F - 46.4 °F 93% 29.28 in 0.2 mi South 10.4 mph - 0.00 in Fog , Rain Light Rain
8:22 AM 48.2 °F - 46.4 °F 93% 29.31 in 1.8 mi SSW 16.1 mph - 0.00 in Rain Light Rain
8:32 AM 48.2 °F - 46.4 °F 93% 29.34 in 2.0 mi West 15.0 mph - 0.01 in Rain Rain
8:37 AM 50.0 °F - 48.2 °F 94% 29.34 in 1.5 mi WSW 13.8 mph 23.0 mph 0.07 in Rain Heavy Rain
8:43 AM 50.0 °F - 48.2 °F 94% 29.34 in 1.5 mi WSW 15.0 mph - 0.17 in Rain Heavy Rain
8:51 AM 50.0 °F - 46.9 °F 89% 29.36 in - West 18.4 mph 26.5 mph 0.22 in Rain Light Rain
8:58 AM 48.2 °F - 46.4 °F 93% 29.36 in 6.0 mi West 20.7 mph 34.5 mph 0.01 in Rain Light Rain
9:14 AM 48.2 °F - 39.2 °F 71% 29.37 in 6.0 mi West 21.9 mph 33.4 mph 0.01 in Rain Light Rain
9:51 AM 45.0 °F 40.6 °F 39.0 °F 80% 29.38 in 10.0 mi West 8.1 mph - 0.03 in Rain Light Rain
10:51 AM 42.1 °F 36.6 °F 37.0 °F 82% 29.42 in 10.0 mi WNW 9.2 mph - 0.03 in Rain Light Rain
11:23 AM 37.4 °F 26.1 °F 30.2 °F 75% 29.44 in 9.0 mi WNW 24.2 mph 36.8 mph 0.00 in Rain Light Ice Pellets
11:41 AM 35.6 °F 24.0 °F 30.2 °F 81% 29.45 in 3.0 mi WNW 23.0 mph 33.4 mph 0.00 in Rain , Snow Light Snow
11:51 AM 35.1 °F 22.5 °F 30.0 °F 82% 29.45 in 3.0 mi WNW 26.5 mph 34.5 mph 0.00 in Snow Light Snow
12:29 PM 35.6 °F 23.4 °F 26.6 °F 70% 29.42 in 3.0 mi WNW 25.3 mph 34.5 mph 0.00 in Snow Light Snow
12:51 PM 36.0 °F 25.6 °F 26.1 °F 67% 29.44 in 10.0 mi WNW 18.4 mph 28.8 mph 0.00 in Snow Light Snow
1:51 PM 35.1 °F 23.3 °F 21.9 °F 59% 29.48 in 10.0 mi WNW 23.0 mph 33.4 mph 0.00 in   Mostly Cloudy
2:51 PM 34.0 °F 23.0 °F 18.0 °F 52% 29.51 in 10.0 mi WNW 18.4 mph 31.1 mph N/A   Mostly Cloudy
3:51 PM 30.9 °F 19.1 °F 16.0 °F 54% 29.52 in 10.0 mi WNW 18.4 mph 28.8 mph N/A   Scattered Clouds
4:51 PM 30.0 °F 20.0 °F 17.1 °F 59% 29.54 in 10.0 mi WNW 12.7 mph - N/A   Scattered Clouds
5:51 PM 28.0 °F 15.3 °F 16.0 °F 61% 29.55 in 10.0 mi WNW 18.4 mph 26.5 mph N/A   Scattered Clouds
6:51 PM 27.0 °F 13.9 °F 15.1 °F 61% 29.57 in 10.0 mi WNW 18.4 mph 27.6 mph N/A   Partly Cloudy
7:51 PM 26.1 °F 14.0 °F 12.0 °F 55% 29.60 in 10.0 mi WNW 15.0 mph 25.3 mph N/A   Scattered Clouds
8:51 PM 24.1 °F 13.1 °F 10.9 °F 57% 29.60 in 10.0 mi WNW 11.5 mph - N/A   Partly Cloudy
9:51 PM 21.9 °F 6.2 °F 9.0 °F 58% 29.62 in 10.0 mi West 21.9 mph 33.4 mph N/A   Mostly Cloudy
10:51 PM 16.0 °F -3.2 °F 1.9 °F 54% 29.65 in 10.0 mi WNW 26.5 mph 40.3 mph N/A   Scattered Clouds
11:51 PM 12.9 °F -4.9 °F -6.0 °F 43% 29.68 in 10.0 mi WNW 19.6 mph 31.1 mph N/A   Scattered Clouds